| time (UTC) | temp C | wind direction | speed KPH | gust KPH | rain 1hr cm | rain 24hr cm | rain mn cm | humidity % | barometer mb |
| 20260504035008 | 7 | 0 | 0.0 | 0.0 | 0.00 | 0.00 | 0.00 | 92 | 960.0 |
| 20260504034508 | 7 | 0 | 0.0 | 1.6 | 0.00 | 0.00 | 0.00 | 92 | 959.9 |
| 20260504034008 | 7 | 0 | 0.0 | 3.2 | 0.00 | 0.00 | 0.00 | 92 | 959.9 |
| 20260504033508 | 7 | 285 | 0.0 | 6.4 | 0.00 | 0.00 | 0.00 | 92 | 959.9 |
| 20260504033008 | 7 | 273 | 1.6 | 6.4 | 0.00 | 0.00 | 0.00 | 92 | 959.8 |
| 20260504032508 | 7 | 261 | 3.2 | 6.4 | 0.00 | 0.00 | 0.00 | 92 | 960.0 |
| 20260504032008 | 7 | 262 | 3.2 | 6.4 | 0.00 | 0.00 | 0.00 | 92 | 960.0 |
| 20260504031508 | 7 | 266 | 1.6 | 6.4 | 0.00 | 0.00 | 0.00 | 92 | 960.1 |
| 20260504031008 | 7 | 268 | 3.2 | 4.8 | 0.00 | 0.00 | 0.00 | 93 | 960.0 |
| 20260504030508 | 7 | 275 | 0.0 | 6.4 | 0.00 | 0.00 | 0.00 | 93 | 960.1 |
| 20260504030008 | 7 | 277 | 1.6 | 6.4 | 0.00 | 0.00 | 0.00 | 94 | 960.0 |
| 20260504025508 | 7 | 274 | 4.8 | 6.4 | 0.00 | 0.00 | 0.00 | 93 | 960.2 |
| 20260504025008 | 7 | 279 | 3.2 | 6.4 | 0.00 | 0.00 | 0.00 | 94 | 960.2 |
| 20260504024508 | 7 | 272 | 0.0 | 3.2 | 0.00 | 0.00 | 0.00 | 94 | 960.1 |
| 20260504024008 | 7 | 173 | 0.0 | 3.2 | 0.00 | 0.00 | 0.00 | 94 | 960.2 |
| 20260504023508 | 7 | 286 | 0.0 | 1.6 | 0.00 | 0.00 | 0.00 | 94 | 960.2 |
| 20260504023008 | 7 | 0 | 0.0 | 1.6 | 0.00 | 0.00 | 0.00 | 94 | 960.3 |
| 20260504022508 | 7 | 299 | 1.6 | 1.6 | 0.00 | 0.00 | 0.00 | 94 | 960.2 |
| 20260504022008 | 7 | 0 | 0.0 | 0.0 | 0.00 | 0.00 | 0.00 | 93 | 960.3 |
| 20260504021508 | 7 | 0 | 0.0 | 0.0 | 0.00 | 0.00 | 0.00 | 93 | 960.2 |
| 20260504021008 | 7 | 0 | 0.0 | 0.0 | 0.00 | 0.00 | 0.00 | 92 | 960.2 |
| 20260504020508 | 7 | 0 | 0.0 | 0.0 | 0.00 | 0.00 | 0.00 | 92 | 960.2 |
| 20260504020008 | 7 | 0 | 0.0 | 1.6 | 0.00 | 0.00 | 0.00 | 92 | 960.2 |
| 20260504015508 | 7 | 0 | 0.0 | 4.8 | 0.00 | 0.00 | 0.00 | 91 | 960.2 |
| 20260504015008 | 7 | 265 | 1.6 | 4.8 | 0.00 | 0.00 | 0.00 | 91 | 960.2 |
| 20260504014508 | 7 | 267 | 3.2 | 4.8 | 0.00 | 0.00 | 0.00 | 92 | 960.2 |
| 20260504014008 | 7 | 274 | 0.0 | 6.4 | 0.00 | 0.00 | 0.00 | 91 | 960.3 |
| 20260504013508 | 7 | 274 | 1.6 | 8.0 | 0.00 | 0.00 | 0.00 | 92 | 960.3 |
| 20260504013008 | 7 | 255 | 6.4 | 8.0 | 0.00 | 0.00 | 0.00 | 92 | 960.3 |
| 20260504012507 | 7 | 284 | 0.0 | 1.6 | 0.00 | 0.00 | 0.00 | 92 | 960.2 |
| 20260504012007 | 7 | 286 | 0.0 | 3.2 | 0.00 | 0.00 | 0.00 | 92 | 960.2 |
| 20260504011508 | 7 | 0 | 0.0 | 3.2 | 0.00 | 0.00 | 0.00 | 92 | 960.2 |
| 20260504011008 | 7 | 284 | 0.0 | 1.6 | 0.00 | 0.00 | 0.00 | 92 | 960.1 |
| 20260504010507 | 7 | 0 | 0.0 | 1.6 | 0.00 | 0.00 | 0.00 | 92 | 960.2 |
| 20260504010008 | 7 | 0 | 0.0 | 1.6 | 0.00 | 0.00 | 0.00 | 91 | 960.1 |
| 20260504005507 | 7 | 0 | 0.0 | 0.0 | 0.00 | 0.00 | 0.00 | 92 | 960.2 |
| 20260504005008 | 7 | 0 | 0.0 | 3.2 | 0.00 | 0.00 | 0.00 | 92 | 960.2 |
| 20260504004507 | 7 | 293 | 0.0 | 4.8 | 0.00 | 0.00 | 0.00 | 92 | 960.1 |
| 20260504004007 | 7 | 276 | 3.2 | 4.8 | 0.00 | 0.00 | 0.00 | 92 | 960.1 |
| 20260504003507 | 8 | 280 | 1.6 | 4.8 | 0.00 | 0.00 | 0.00 | 91 | 960.1 |
| 20260504003007 | 8 | 280 | 1.6 | 4.8 | 0.00 | 0.00 | 0.00 | 92 | 960.2 |
| 20260504002507 | 7 | 276 | 0.0 | 4.8 | 0.00 | 0.00 | 0.00 | 91 | 960.2 |
| 20260504002007 | 8 | 284 | 3.2 | 4.8 | 0.00 | 0.00 | 0.00 | 91 | 960.2 |
| 20260504001507 | 7 | 274 | 0.0 | 3.2 | 0.00 | 0.00 | 0.00 | 90 | 960.2 |
| 20260504001007 | 8 | 0 | 0.0 | 3.2 | 0.00 | 0.00 | 0.00 | 90 | 960.2 |
| 20260504000507 | 8 | 274 | 1.6 | 3.2 | 0.00 | 0.00 | 0.00 | 90 | 960.2 |
| 20260504000007 | 8 | 0 | 0.0 | 0.0 | 0.00 | 0.00 | 0.00 | 90 | 960.3 |
| 20260503235507 | 8 | 0 | 0.0 | 0.0 | 0.00 | 0.00 | 0.00 | 90 | 960.2 |
| 20260503235007 | 8 | 0 | 0.0 | 0.0 | 0.00 | 0.00 | 0.00 | 90 | 960.2 |
| 20260503234507 | 8 | 0 | 0.0 | 6.4 | 0.00 | 0.00 | 0.00 | 89 | 960.3 |
| 20260503234007 | 8 | 291 | 0.0 | 6.4 | 0.00 | 0.00 | 0.00 | 89 | 960.4 |
| 20260503233507 | 8 | 274 | 3.2 | 6.4 | 0.00 | 0.00 | 0.00 | 88 | 960.4 |
| 20260503233007 | 8 | 277 | 3.2 | 6.4 | 0.00 | 0.00 | 0.00 | 88 | 960.5 |
| 20260503232507 | 9 | 237 | 0.0 | 4.8 | 0.00 | 0.00 | 0.00 | 88 | 960.5 |
| 20260503232007 | 9 | 198 | 1.6 | 4.8 | 0.00 | 0.00 | 0.00 | 88 | 960.4 |
| 20260503231507 | 9 | 0 | 0.0 | 4.8 | 0.00 | 0.00 | 0.00 | 88 | 960.5 |
| 20260503231007 | 9 | 274 | 3.2 | 4.8 | 0.00 | 0.00 | 0.00 | 89 | 960.5 |
| 20260503230507 | 9 | 290 | 0.0 | 4.8 | 0.00 | 0.00 | 0.00 | 88 | 960.5 |
| 20260503230009 | 9 | 274 | 0.0 | 4.8 | 0.00 | 0.00 | 0.00 | 87 | 960.4 |
| 20260503225507 | 9 | 275 | 3.2 | 6.4 | 0.00 | 0.00 | 0.00 | 89 | 960.4 |
| 20260503225007 | 8 | 290 | 0.0 | 6.4 | 0.00 | 0.00 | 0.00 | 88 | 960.4 |
| 20260503224507 | 9 | 275 | 4.8 | 6.4 | 0.00 | 0.00 | 0.00 | 87 | 960.4 |
| 20260503224007 | 10 | 278 | 1.6 | 4.8 | 0.00 | 0.00 | 0.00 | 86 | 960.5 |
| 20260503223507 | 10 | 247 | 3.2 | 4.8 | 0.00 | 0.00 | 0.00 | 87 | 960.5 |
| 20260503223007 | 10 | 0 | 0.0 | 4.8 | 0.00 | 0.00 | 0.00 | 86 | 960.6 |
| 20260503222507 | 10 | 0 | 0.0 | 6.4 | 0.00 | 0.00 | 0.00 | 86 | 960.5 |
| 20260503222007 | 10 | 178 | 1.6 | 6.4 | 0.00 | 0.00 | 0.00 | 86 | 960.5 |
| 20260503221507 | 10 | 192 | 3.2 | 6.4 | 0.00 | 0.00 | 0.00 | 86 | 960.4 |
| 20260503221008 | 10 | 205 | 0.0 | 4.8 | 0.00 | 0.00 | 0.00 | 86 | 960.4 |
| 20260503220508 | 10 | 197 | 1.6 | 4.8 | 0.00 | 0.00 | 0.00 | 85 | 960.4 |
| 20260503220008 | 10 | 0 | 0.0 | 6.4 | 0.00 | 0.00 | 0.00 | 85 | 960.4 |
| 20260503215508 | 10 | 282 | 3.2 | 6.4 | 0.00 | 0.00 | 0.00 | 85 | 960.4 |
| 20260503215008 | 10 | 280 | 3.2 | 4.8 | 0.00 | 0.00 | 0.00 | 85 | 960.3 |
| 20260503214508 | 10 | 291 | 0.0 | 4.8 | 0.00 | 0.00 | 0.00 | 85 | 960.2 |
| 20260503214008 | 10 | 285 | 0.0 | 6.4 | 0.00 | 0.00 | 0.00 | 85 | 960.3 |
| 20260503213507 | 10 | 282 | 1.6 | 6.4 | 0.00 | 0.00 | 0.00 | 85 | 960.2 |
| 20260503213008 | 10 | 283 | 1.6 | 6.4 | 0.00 | 0.00 | 0.00 | 85 | 960.2 |
| 20260503212507 | 11 | 279 | 3.2 | 6.4 | 0.00 | 0.00 | 0.00 | 84 | 960.2 |
| 20260503212007 | 11 | 0 | 0.0 | 3.2 | 0.00 | 0.00 | 0.00 | 83 | 960.1 |
| 20260503211507 | 11 | 41 | 0.0 | 8.0 | 0.00 | 0.00 | 0.00 | 83 | 960.2 |
| 20260503211007 | 11 | 161 | 3.2 | 8.0 | 0.00 | 0.00 | 0.00 | 82 | 960.1 |
| 20260503210507 | 11 | 186 | 0.0 | 4.8 | 0.00 | 0.00 | 0.00 | 83 | 960.0 |
| 20260503210008 | 11 | 0 | 0.0 | 4.8 | 0.00 | 0.00 | 0.00 | 83 | 960.0 |
| 20260503205507 | 11 | 264 | 0.0 | 4.8 | 0.00 | 0.00 | 0.00 | 82 | 960.0 |
| 20260503205007 | 11 | 248 | 0.0 | 3.2 | 0.00 | 0.00 | 0.00 | 82 | 960.1 |
| 20260503204507 | 11 | 245 | 0.0 | 6.4 | 0.00 | 0.00 | 0.00 | 82 | 960.0 |
| 20260503204007 | 11 | 191 | 1.6 | 6.4 | 0.00 | 0.00 | 0.00 | 81 | 960.1 |
| 20260503203507 | 12 | 264 | 0.0 | 4.8 | 0.00 | 0.00 | 0.00 | 81 | 960.0 |
| 20260503203007 | 11 | 264 | 0.0 | 4.8 | 0.00 | 0.00 | 0.00 | 82 | 960.0 |
| 20260503202507 | 11 | 264 | 0.0 | 4.8 | 0.00 | 0.00 | 0.00 | 82 | 959.9 |
| 20260503202007 | 11 | 275 | 0.0 | 4.8 | 0.00 | 0.00 | 0.00 | 82 | 959.9 |
| 20260503201507 | 11 | 0 | 0.0 | 1.6 | 0.00 | 0.00 | 0.00 | 82 | 959.9 |
| 20260503201008 | 11 | 286 | 0.0 | 1.6 | 0.00 | 0.00 | 0.00 | 82 | 959.9 |
| 20260503200507 | 11 | 294 | 0.0 | 1.6 | 0.00 | 0.00 | 0.00 | 81 | 959.8 |
| 20260503200007 | 11 | 262 | 0.0 | 4.8 | 0.00 | 0.00 | 0.00 | 81 | 959.8 |
| 20260503195507 | 11 | 270 | 1.6 | 4.8 | 0.00 | 0.00 | 0.00 | 81 | 959.7 |
| 20260503195007 | 12 | 276 | 3.2 | 4.8 | 0.00 | 0.00 | 0.00 | 80 | 959.6 |
| 20260503194507 | 12 | 271 | 0.0 | 6.4 | 0.00 | 0.00 | 0.00 | 80 | 959.6 |
| 20260503194007 | 12 | 275 | 0.0 | 6.4 | 0.00 | 0.00 | 0.00 | 80 | 959.4 |
| 20260503193507 | 12 | 285 | 1.6 | 4.8 | 0.00 | 0.00 | 0.00 | 79 | 959.5 |
| 20260503193007 | 12 | 0 | 0.0 | 4.8 | 0.00 | 0.00 | 0.00 | 78 | 959.4 |
| 20260503192507 | 12 | 0 | 0.0 | 6.4 | 0.00 | 0.00 | 0.00 | 78 | 959.3 |
| 20260503192007 | 13 | 260 | 3.2 | 6.4 | 0.00 | 0.00 | 0.00 | 77 | 959.3 |
| 20260503191507 | 13 | 267 | 3.2 | 4.8 | 0.00 | 0.00 | 0.00 | 76 | 959.3 |
| 20260503191007 | 13 | 283 | 0.0 | 1.6 | 0.00 | 0.00 | 0.00 | 75 | 959.2 |
| 20260503190507 | 13 | 283 | 0.0 | 1.6 | 0.00 | 0.00 | 0.00 | 74 | 959.1 |
| 20260503190007 | 13 | 0 | 0.0 | 3.2 | 0.00 | 0.00 | 0.00 | 74 | 959.1 |
| 20260503185507 | 14 | 285 | 1.6 | 3.2 | 0.00 | 0.00 | 0.00 | 73 | 959.1 |
| 20260503185007 | 14 | 0 | 0.0 | 1.6 | 0.00 | 0.00 | 0.00 | 72 | 959.0 |
| 20260503184507 | 14 | 0 | 0.0 | 1.6 | 0.00 | 0.00 | 0.00 | 71 | 958.9 |
| 20260503184007 | 15 | 71 | 0.0 | 3.2 | 0.00 | 0.00 | 0.00 | 71 | 958.8 |
| 20260503183507 | 15 | 83 | 0.0 | 4.8 | 0.00 | 0.00 | 0.00 | 70 | 958.7 |
| 20260503183007 | 15 | 84 | 0.0 | 4.8 | 0.00 | 0.00 | 0.00 | 69 | 958.7 |
| 20260503182507 | 15 | 131 | 0.0 | 6.4 | 0.00 | 0.00 | 0.00 | 69 | 958.7 |
| 20260503182007 | 15 | 98 | 3.2 | 6.4 | 0.00 | 0.00 | 0.00 | 69 | 958.7 |
| 20260503181507 | 15 | 84 | 1.6 | 9.7 | 0.00 | 0.00 | 0.00 | 69 | 958.7 |
| 20260503181007 | 15 | 89 | 1.6 | 9.7 | 0.00 | 0.00 | 0.00 | 68 | 958.6 |
| 20260503180507 | 16 | 85 | 1.6 | 9.7 | 0.00 | 0.00 | 0.00 | 68 | 958.6 |
| 20260503180007 | 16 | 105 | 3.2 | 11.3 | 0.00 | 0.00 | 0.00 | 67 | 958.5 |
| 20260503175507 | 16 | 70 | 4.8 | 11.3 | 0.00 | 0.00 | 0.00 | 66 | 958.6 |
| 20260503175007 | 16 | 39 | 3.2 | 9.7 | 0.00 | 0.00 | 0.00 | 65 | 958.4 |
| 20260503174507 | 17 | 91 | 3.2 | 9.7 | 0.00 | 0.00 | 0.00 | 64 | 958.4 |
| 20260503174007 | 17 | 100 | 1.6 | 14.5 | 0.00 | 0.00 | 0.00 | 64 | 958.3 |
| 20260503173507 | 17 | 86 | 4.8 | 14.5 | 0.00 | 0.00 | 0.00 | 64 | 958.3 |
| 20260503173007 | 17 | 87 | 1.6 | 12.9 | 0.00 | 0.00 | 0.00 | 63 | 958.4 |
| 20260503172507 | 17 | 96 | 4.8 | 12.9 | 0.00 | 0.00 | 0.00 | 63 | 958.4 |
| 20260503172007 | 17 | 85 | 4.8 | 16.1 | 0.00 | 0.00 | 0.00 | 62 | 958.2 |
| 20260503171507 | 17 | 87 | 3.2 | 17.7 | 0.00 | 0.00 | 0.00 | 61 | 958.2 |
| 20260503171007 | 18 | 94 | 8.0 | 17.7 | 0.00 | 0.00 | 0.00 | 60 | 958.2 |
| 20260503170507 | 18 | 85 | 6.4 | 20.9 | 0.00 | 0.00 | 0.00 | 61 | 958.3 |
| 20260503151007 | 20 | 111 | 11.3 | 24.1 | 0.00 | 0.00 | 0.00 | 54 | 958.4 |
| 20260503150506 | 20 | 131 | 12.9 | 20.9 | 0.00 | 0.00 | 0.00 | 53 | 958.5 |
| 20260503131007 | 22 | 53 | 1.6 | 8.0 | 0.00 | 0.00 | 0.00 | 35 | 958.6 |
| 20260503130507 | 22 | 294 | 3.2 | 9.7 | 0.00 | 0.00 | 0.00 | 35 | 958.7 |
| 20260503110508 | 19 | 192 | 4.8 | 9.7 | 0.00 | 0.00 | 0.00 | 38 | 960.0 |
| 20260503090508 | 15 | 107 | 4.8 | 11.3 | 0.00 | 0.00 | 0.00 | 51 | 960.9 |
| 20260503081507 | 14 | 55 | 4.8 | 8.0 | 0.00 | 0.00 | 0.00 | 57 | 961.2 |
| 20260503081007 | 14 | 50 | 1.6 | 8.0 | 0.00 | 0.00 | 0.00 | 57 | 961.2 |
| 20260503080507 | 14 | 60 | 3.2 | 6.4 | 0.00 | 0.00 | 0.00 | 58 | 961.3 |
| 20260503072507 | 12 | 350 | 0.0 | 6.4 | 0.00 | 0.00 | 0.00 | 63 | 961.7 |
| 20260503072007 | 12 | 3 | 0.0 | 6.4 | 0.00 | 0.00 | 0.00 | 63 | 961.7 |
| 20260503071507 | 11 | 99 | 0.0 | 6.4 | 0.00 | 0.00 | 0.00 | 69 | 961.8 |
| 20260503071007 | 11 | 88 | 3.2 | 6.4 | 0.00 | 0.00 | 0.00 | 71 | 961.7 |
| 20260503070507 | 10 | 72 | 1.6 | 6.4 | 0.00 | 0.00 | 0.00 | 72 | 961.6 |
| 20260503055007 | 8 | 0 | 0.0 | 0.0 | 0.00 | 0.00 | 0.00 | 74 | 961.7 |
| 20260503054507 | 7 | 115 | 0.0 | 0.0 | 0.00 | 0.00 | 0.00 | 76 | 961.6 |
| 20260503054007 | 7 | 0 | 0.0 | 1.6 | 0.00 | 0.00 | 0.00 | 78 | 961.7 |
| 20260503053507 | 6 | 271 | 0.0 | 1.6 | 0.00 | 0.00 | 0.00 | 79 | 961.7 |
| 20260503053007 | 6 | 276 | 0.0 | 1.6 | 0.00 | 0.00 | 0.00 | 80 | 961.7 |
| 20260503052508 | 6 | 277 | 0.0 | 1.6 | 0.00 | 0.00 | 0.00 | 81 | 961.6 |
| 20260503052007 | 5 | 0 | 0.0 | 0.0 | 0.00 | 0.00 | 0.00 | 83 | 961.6 |
| 20260503051507 | 5 | 0 | 0.0 | 3.2 | 0.00 | 0.00 | 0.00 | 86 | 961.7 |
| 20260503051007 | 3 | 277 | 0.0 | 3.2 | 0.00 | 0.00 | 0.00 | 88 | 961.5 |
| 20260503050507 | 3 | 0 | 0.0 | 0.0 | 0.00 | 0.00 | 0.00 | 90 | 961.6 |
| 20260503050007 | 2 | 0 | 0.0 | 0.0 | 0.00 | 0.00 | 0.00 | 90 | 961.4 |
| 20260503045507 | 2 | 0 | 0.0 | 1.6 | 0.00 | 0.00 | 0.00 | 90 | 961.4 |
| 20260503045007 | 2 | 344 | 0.0 | 1.6 | 0.00 | 0.00 | 0.00 | 90 | 961.4 |
| 20260503044507 | 2 | 0 | 0.0 | 0.0 | 0.00 | 0.00 | 0.00 | 90 | 961.2 |
| 20260503044007 | 2 | 0 | 0.0 | 1.6 | 0.00 | 0.00 | 0.00 | 91 | 961.2 |
| 20260503043507 | 2 | 0 | 0.0 | 1.6 | 0.00 | 0.00 | 0.00 | 91 | 961.1 |
| 20260503043007 | 2 | 0 | 0.0 | 3.2 | 0.00 | 0.00 | 0.00 | 91 | 961.2 |
| 20260503042507 | 2 | 80 | 1.6 | 3.2 | 0.00 | 0.00 | 0.00 | 92 | 961.2 |
| 20260503042007 | 1 | 0 | 0.0 | 0.0 | 0.00 | 0.00 | 0.00 | 91 | 961.2 |
| 20260503041507 | 1 | 0 | 0.0 | 0.0 | 0.00 | 0.00 | 0.00 | 92 | 961.2 |
| 20260503041007 | 1 | 0 | 0.0 | 0.0 | 0.00 | 0.00 | 0.00 | 91 | 961.0 |
| 20260503040507 | 1 | 0 | 0.0 | 1.6 | 0.00 | 0.00 | 0.00 | 90 | 961.1 |
| 20260503040007 | 2 | 0 | 0.0 | 1.6 | 0.00 | 0.00 | 0.00 | 89 | 961.1 |
| 20260503035507 | 2 | 74 | 0.0 | 3.2 | 0.00 | 0.00 | 0.00 | 87 | 961.1 |